00:01
Airports
History
Links
Donate
Help keep this website running!
PayPal
Bitcoin
This page is community maintained. The information is intended for PC simulator navigation or reference.
Always use approved charts for navigation.
ENSR
Sorkjosen
Sorkjosen (ENSR)
Sørkjosen, Troms, Norway (9152)
(C)
Lat/Lng:69° 47' 14.2" N / 20° 57' 31.77" E
69.787279 / 20.958825
Elevation:16'ft / 5mMSL
ID / ICAO:ENSR
Runways:1
Longest:15-33
Asphalt 982m / 3,221ft
Controlled:Yes
METAR19:50 GMT 2018-01-23
Altimeter: 29.77
Visibility: 6.2 statute miles
Wind: 23 knots (from 130°)
Temp: -8°c / 18°f
Humidity: 72.8%

METAR: ENSR 231950Z 15012KT 9999 SCT031 BKN042 M08/M12 Q1008 WIND 1119FT 13023KT

(Powered by phpweather)
Airport Radio Frequencies
Tower: 119.6
Nearby VORs <50NM
Nearby NDBs
Runway 15 / 33
Dimensions:981.7 x 29.9m 3221' x 98'ft
Surface:Asphalt
Runway 15 [A]Runway 33 [B]
Heading:334°TH 154°TH
Lat:
Lng:
69° 46' 59.86"N
20° 57' 51.9"E
69° 47' 28.55"N
20° 57' 11.64"E
ALS:MALSFMALSF
User Notes and Comments
69° 47' 14.2" N / 20° 57' 31.77" E
Distance To
Airport ID:
Nearby Airports
(C) Tromso Langnes 49.3 NM
ENTC ( WX ) W 261°
(U) HASVIK 55.7 NM
ENHK NNE 29°
(C) ALTA 58.7 NM
ENAT ( WX ) ENE 77°
(C) Kautokeino 72.1 NM
ENKA SE 135°
(C) Bardufoss 77.5 NM
ENDU ( WX ) SW 229°
(C) Hammerfest 88.3 NM
ENHF ( WX ) NE 45°
(C) BANAK 97.1 NM
ENNA ( WX ) ENE 78°
VFR Chart
Flight Planning at SkyVector.com